User: anonymous   Login
Location: Cluny
(50.9333°N, 112.8167°W)
Time: 12:45:35
(UTC-06:00)
Language:

Cosmos 1743 Rocket - Orbit

View from above orbital plane
View from above orbital plane
View from above satellite
View from above satellite

Ground track
Ground track

The orbit data is extracted from the following two-line orbital elements,

1 16720U 86034B   17206.15980163 +.00000062 +00000-0 +46865-5 0  9998
2 16720 082.5526 206.0952 0019627 340.6978 073.2185 14.83295856684894
Epoch (UTC): 25 July 2017 03:50:06
Eccentricity: 0.0019627
inclination: 82.5526°
perigee height: 605 km
apogee height: 632 km
right ascension of ascending node: 206.0952°
argument of perigee: 340.6978°
revolutions per day: 14.83295856
mean anomaly at epoch: 73.2185°
orbit number at epoch: 68489

The dashed part of the orbit path shows where the satellite is in the earth's shadow,  

DLR